User: anonymous   Login
Location: Unspecified
(0.0000°N, 0.0000°E)
Time: 07:08:33
(UTC+00:00)
Language:

EGRS 8 - Orbit

View from above orbital plane
View from above orbital plane
View from above satellite
View from above satellite

Ground track
Ground track

The orbit data is extracted from the following two-line orbital elements,

1  2520U 66089B   18200.53474761 -.00000026 +00000-0 -14069-1 0  9997
2  2520 089.6795 056.3859 0015292 315.8670 044.0961 08.58903232133843
Epoch (UTC): 19 July 2018 12:50:02
Eccentricity: 0.0015292
inclination: 89.6795°
perigee height: 3678 km
apogee height: 3709 km
right ascension of ascending node: 56.3859°
argument of perigee: 315.8670°
revolutions per day: 8.58903232
mean anomaly at epoch: 44.0961°
orbit number at epoch: 13384

The dashed part of the orbit path shows where the satellite is in the earth's shadow,  

DLR